Home   Weather   Springe   Past weeks

Flag for Germany Past Weather in Springe, Lower Saxony, Germany — Yesterday and Last 2 Weeks

Now
48 °F

Cool.


Feels Like: 43 °F
Forecast: 43 / 46 °F
Wind: 12 mph from West

Location: Wunstorf Airport

Current Time: Dec 10, 2016 at 3:57:26 am

Latest Report: Dec 10, 2016 at 3:20 am


Visibility: N/A

Pressure: 30.18 "Hg

Humidity: 76%

Dew Point: 41 °F

Location of SpringeLocation

Past Weather in Springe — Graph

°F

Springe Temperature Yesterday

Maximum temperature yesterday: 50 °F (at 6:20 pm)
Minimum temperature yesterday: 45 °F (at 12:20 am)
Average temperature yesterday: 47 °F

High & Low Weather Summary for the Past Weeks

 TemperatureHumidityPressure
High52 °F (Dec 8, 1:20 pm)100% (Nov 25, 3:20 am)30.60 "Hg (Nov 25, 3:20 am)
Low18 °F (Dec 5, 4:20 am)46% (Dec 8, 7:20 pm)30.01 "Hg (Nov 26, 10:20 pm)
Average35 °F84%30.30 "Hg
* Reported Nov 25 2:54 am — Dec 10 2:20 am, Springe, Weather by CustomWeather, © 2016

Note: Actual official high and low records may vary slightly from our data, if they occured in-between our weather recording intervals... More about our weather records

Advertising

Springe Weather History for the Previous 24 Hours

Scroll right to see more
 ConditionsComfort  
Time TempWeatherWind HumidityBarometerVisibility
2:20 am
Sat, Dec 10
48 °FCool.13 mph82%30.18 "HgN/A
1:20 am48 °FCool.14 mph82%30.21 "HgN/A
12:20 am50 °FCool.15 mph76%30.21 "HgN/A
11:20 pm
Fri, Dec 9
50 °FCool.13 mph76%30.21 "HgN/A
10:20 pm50 °FCool.13 mph82%30.21 "HgN/A
9:20 pm50 °FCool.9 mph82%30.24 "HgN/A
8:20 pm50 °FCool.9 mph88%30.24 "HgN/A
7:20 pm50 °FCool.13 mph94%30.24 "HgN/A
6:20 pm50 °FCool.13 mph94%30.24 "HgN/A
5:20 pm48 °FDrizzle. Fog.6 mph94%30.27 "Hg2 mi
4:20 pm48 °FDrizzle. Fog.6 mph94%30.30 "Hg2 mi
3:20 pm48 °FDrizzle. Fog.12 mph94%30.30 "Hg3 mi
2:20 pm48 °FDrizzle. Fog.9 mph94%30.30 "Hg2 mi
1:20 pm48 °FDrizzle. Fog.12 mph94%30.30 "Hg2 mi
12:20 pm48 °FDrizzle. Fog.14 mph94%30.30 "Hg2 mi
11:20 am48 °FFog.13 mph94%30.30 "Hg3 mi
10:20 am48 °FFog.14 mph94%30.30 "Hg2 mi
9:20 am46 °FDrizzle. Fog.13 mph93%30.27 "Hg1 mi
8:46 am46 °FDrizzle. Fog.12 mph93%30.27 "Hg1 mi
8:20 am46 °FDrizzle. Fog.13 mph93%30.27 "Hg1 mi
7:20 am46 °FDrizzle. Fog.12 mph93%30.24 "Hg1 mi
6:20 am45 °FFog.12 mph93%30.24 "Hg1 mi
5:20 am45 °FFog.14 mph93%30.24 "Hg2 mi
4:20 am45 °FQuite cool.14 mph93%30.24 "HgN/A
3:20 am45 °FQuite cool.14 mph93%30.24 "HgN/A
Weather by CustomWeather, © 2016

See weather overviewHow to use our weather pages